{"data":{"norad_id":44334,"intl_designator":"2019-034B","name":"EUTELSAT 7C","alt_names":[],"object_type":"PAYLOAD","status":"ACTIVE","operator":null,"country":"EUTE","launch_date":"2019-06-20","launch_site_code":"FRGUI","launch_vehicle":null,"mission":null,"orbit_class":"UNKNOWN","rcs_meters":null,"size_class":null,"mass_kg":null,"dimensions":null,"purposes":["comms"],"wikipedia_slug":null,"has_3d_model":false,"image_url":null,"decayed_at":null,"tle_current":{"epoch":"2026-09-19T15:17:38.468256Z","epoch_age_seconds":96431,"freshness":"FRESH","line1":"1 44334U 19034B   26262.63725079  .00000044  00000+0  00000+0 0  9998","line2":"2 44334   0.0681 181.8343 0003266 337.4216  75.7018  1.00271630  7786","mean_motion":1.0027163,"eccentricity":0.0003266,"inclination_deg":0.0681,"raan_deg":181.8343,"arg_perigee_deg":337.4216,"mean_anomaly_deg":75.7018,"bstar":0,"rev_number":778,"period_min":1436.0991239496,"perigee_km":35772.867397723,"apogee_km":35800.409429023,"semimajor_km":42164.775413373,"source":"CELESTRAK","updated_at":"2026-09-20T09:00:35.267792Z"}}}